Anniston, AL

4:26 PM CDT on April 20, 2018 (GMT -0500)
Anniston Metro

Weather History for KANB - October, 2013

Change the Weather History Date:

Tuesday, October 8, 2013

  Actual Average Record
Temperature  
Mean Temperature 65 °F 66 °F  
Max Temperature 78 °F 77 °F 91 °F (2007)
Min Temperature 52 °F 54 °F 34 °F (1987)
Degree Days  
Heating Degree Days 0    
Month to date heating degree days 0  
Since 1 July heating degree days 0  
Growing Degree Days 13 (Base 50)    
Moisture  
Dew Point 55 °F    
Average Humidity 72    
Maximum Humidity 89    
Minimum Humidity 54    
Precipitation  
Precipitation 0.00 in 0.09 in 3.96 in (1977)
Month to date precipitation 1.96 0.78  
Year to date precipitation 62.45 38.63  
Sea Level Pressure  
Sea Level Pressure 30.04 in    
Wind  
Wind Speed 6 mph (ENE)    
Max Wind Speed 15 mph    
Max Gust Speed 23 mph    
Visibility 10 miles    
Events      
T = Trace of Precipitation, MM = Missing Value Source: NWS Daily Summary

Daily Weather History Graph

Daily Weather History Graph

Search for Another Location

Airport or City:

Astronomy

Oct. 08, 2013 Rise Set
Actual Time 6:43 AM CDT 6:18 PM CDT
Civil Twilight 6:18 AM CDT 6:43 PM CDT
Nautical Twilight 5:49 AM CDT 7:11 PM CDT
Astronomical Twilight 5:20 AM CDT 7:40 PM CDT
Moon 10:25 AM CDT (10/8) 9:05 PM CDT (10/8)
Length of Visible Light 12h 24m
Length of Day
11h 35m
Waxing Crescent, 16% of the Moon is Illuminated
Oct 8
Waxing Crescent
Oct 11
First Quarter
Oct 18
Full
Oct 26
Last Quarter
Nov 3
New

Hourly Weather History & Observations

Time (CDT) Temp. Dew Point Humidity Pressure Visibility Wind Dir Wind Speed Gust Speed Precip Events Conditions
12:53 AM 57.0 °F 48.9 °F 74% 30.00 in 10.0 mi ENE 5.8 mph - N/A   Clear
1:53 AM 55.0 °F 48.9 °F 80% 30.00 in 10.0 mi NE 3.5 mph - N/A   Clear
2:53 AM 55.0 °F 48.9 °F 80% 29.99 in 10.0 mi ENE 6.9 mph - N/A   Clear
3:53 AM 54.0 °F 48.9 °F 83% 29.99 in 10.0 mi ENE 6.9 mph - N/A   Clear
4:53 AM 52.0 °F 48.9 °F 89% 29.99 in 10.0 mi East 3.5 mph - N/A   Scattered Clouds
5:06 AM 51.8 °F 50.0 °F 94% 30.00 in 10.0 mi East 3.5 mph - N/A   Mostly Cloudy
5:53 AM 53.1 °F 48.9 °F 86% 30.01 in 10.0 mi ENE 4.6 mph - N/A   Mostly Cloudy
6:53 AM 53.1 °F 48.9 °F 86% 30.03 in 10.0 mi NE 4.6 mph - N/A   Mostly Cloudy
7:04 AM 53.6 °F 48.2 °F 82% 30.03 in 10.0 mi ENE 4.6 mph - N/A   Scattered Clouds
7:53 AM 55.0 °F 50.0 °F 83% 30.05 in 10.0 mi NE 3.5 mph - N/A   Scattered Clouds
8:53 AM 59.0 °F 52.0 °F 78% 30.07 in 10.0 mi East 4.6 mph - N/A   Scattered Clouds
9:53 AM 64.0 °F 54.0 °F 70% 30.06 in 10.0 mi ENE 9.2 mph - N/A   Mostly Cloudy
10:53 AM 70.0 °F 53.1 °F 55% 30.05 in 10.0 mi East 10.4 mph 23.0 mph N/A   Clear
11:53 AM 72.0 °F 55.9 °F 57% 30.06 in 10.0 mi ENE 8.1 mph 17.3 mph N/A   Clear
12:53 PM 75.9 °F 57.9 °F 54% 30.04 in 10.0 mi ENE 6.9 mph - N/A   Scattered Clouds
1:53 PM 75.9 °F 59.0 °F 56% 30.02 in 10.0 mi East 8.1 mph - N/A   Mostly Cloudy
2:53 PM 75.9 °F 60.1 °F 58% 30.02 in 10.0 mi East 8.1 mph 17.3 mph N/A   Clear
3:53 PM 75.0 °F 61.0 °F 62% 30.03 in 10.0 mi East 8.1 mph - N/A   Mostly Cloudy
4:53 PM 73.9 °F 61.0 °F 64% 30.04 in 10.0 mi East 4.6 mph - N/A   Overcast
5:53 PM 73.0 °F 62.1 °F 68% 30.05 in 10.0 mi East 5.8 mph - N/A   Overcast
6:53 PM 71.1 °F 63.0 °F 75% 30.06 in 10.0 mi East 4.6 mph - N/A   Overcast
7:10 PM 71.6 °F 62.6 °F 73% 30.07 in 10.0 mi East 4.6 mph - N/A   Overcast
7:40 PM 69.8 °F 62.6 °F 78% 30.08 in 10.0 mi Variable 4.6 mph - N/A   Overcast
7:53 PM 70.0 °F 61.0 °F 73% 30.07 in 10.0 mi East 5.8 mph - N/A   Overcast
8:53 PM 69.1 °F 59.0 °F 70% 30.09 in 10.0 mi East 6.9 mph - N/A   Overcast
9:53 PM 66.0 °F 57.9 °F 75% 30.10 in 10.0 mi East 6.9 mph - N/A   Clear
10:53 PM 64.9 °F 57.9 °F 78% 30.10 in 10.0 mi ENE 5.8 mph - N/A   Overcast
11:53 PM 64.0 °F 57.0 °F 78% 30.09 in 10.0 mi ENE 6.9 mph - N/A   Mostly Cloudy